This demonstration page uses our WeatherBlox Daily Observations layout. Learn more.

Left ArrowRight Arrow

Hourly Observations for January 19, 2018

Temp ( °F °C ) Dew Point ( °F °C ) Humidity (%) Winds ( mph kmh ) Pressure ( in mb ) Visibility ( mi km ) Precip ( " mm )
12:56 am 00:56 Clear 36 2.2 26 -3.3 67 67 SW 7 11 29.85 1011 10 16 0.00 0.00
2:56 am 02:56 Clear 34 1.1 25 -3.9 70 70 SW 13 20 29.81 1010 10 16 0.00 0.00
3:56 am 03:56 Clear 36 2.2 24 -4.4 62 62 WSW 9 15 29.80 1009 10 16 0.00 0.00
4:56 am 04:56 Clear 33 0.6 23 -5 66 66 SW 7 11 29.78 1009 10 16 0.00 0.00
5:56 am 05:56 Clear 32 0 24 -4.4 73 73 SW 7 11 29.78 1009 10 16 0.00 0.00
6:56 am 06:56 Clear 33 0.6 23 -5 66 66 SW 9 15 29.77 1008 10 16 0.00 0.00
7:56 am 07:56 Sunny 32 0 23 -5 69 69 WSW 7 11 29.77 1008 10 16 0.00 0.00
8:56 am 08:56 Sunny 33 0.6 23 -5 66 66 WSW 8 13 29.76 1008 10 16 0.00 0.00
9:56 am 09:56 Sunny 35 1.7 25 -3.9 67 67 SW 10 17 29.75 1007 10 16 0.00 0.00
10:56 am 10:56 Sunny 38 3.3 26 -3.3 62 62 SW 9 15 29.75 1008 10 16 0.00 0.00
11:56 am 11:56 Sunny 42 5.6 29 -1.7 60 60 SW 10 17 29.72 1007 10 16 0.00 0.00
12:56 pm 12:56 Sunny 44 6.7 30 -1.1 58 58 SSW 9 15 29.69 1005 10 16 0.00 0.00
1:56 pm 13:56 Sunny 44 6.7 32 0 63 63 SSW 12 19 29.66 1005 10 16 0.00 0.00
3:56 pm 15:56 Sunny 46 7.8 36 2.2 68 68 S 7 11 29.67 1005 10 16 0.00 0.00
4:56 pm 16:56 Sunny 42 5.6 34 1.1 73 73 S 7 11 29.69 1005 10 16 0.00 0.00
5:56 pm 17:56 Clear 40 4.4 33 0.6 77 77 Calm 29.72 1007 10 16 0.00 0.00
6:56 pm 18:56 Clear 36 2.2 31 -0.6 82 82 Calm 29.75 1008 10 16 0.00 0.00
7:56 pm 19:56 Clear 34 1.1 30 -1.1 85 85 NNW 6 9 29.77 1008 10 16 0.00 0.00
8:56 pm 20:56 Clear 34 1.1 30 -1.1 85 85 NW 5 7 29.78 1008 10 16 0.00 0.00
9:56 pm 21:56 Clear 36 2.2 30 -1.1 79 79 N 6 9 29.78 1008 10 16 0.00 0.00
10:56 pm 22:56 Clear 35 1.7 30 -1.1 82 82 N 6 9 29.78 1009 10 16 0.00 0.00
11:56 pm 23:56 Clear 35 1.7 31 -0.6 85 85 N 14 22 29.78 1008 10 16 0.00 0.00

Powered by AerisWeather